EN

Hourly Weather Parker

Today, 3 March, Wednesday

Time Temperature Precipitation Wind Pressure Humidity
00:00 +2°C° 0 mm 1 mps 610 mmHg 55%
01:00 +2°C° 0 mm 1 mps 610 mmHg 54%
02:00 +2°C° 0 mm 1 mps 610 mmHg 54%
03:00 +2°C° 0 mm 1 mps 610 mmHg 54%
04:00 +2°C° 0 mm 1 mps 610 mmHg 54%
05:00 +1°C° 0 mm 2 mps 610 mmHg 53%
06:00 +2°C° 0 mm 2 mps 610 mmHg 49%
07:00 +3°C° 0 mm 2 mps 611 mmHg 46%
08:00 +4°C° 0 mm 2 mps 611 mmHg 42%
09:00 +6°C° 0 mm 2 mps 612 mmHg 36%
10:00 +8°C° 0 mm 2 mps 612 mmHg 31%
11:00 +10°C° 0 mm 2 mps 612 mmHg 26%
12:00 +12°C° 0 mm 2 mps 612 mmHg 26%
13:00 +12°C° 0 mm 3 mps 612 mmHg 27%
14:00 +12°C° 0 mm 3 mps 612 mmHg 27%
15:00 +11°C° 0 mm 3 mps 611 mmHg 32%
16:00 +10°C° 0 mm 3 mps 611 mmHg 37%
17:00 +9°C° 0 mm 3 mps 611 mmHg 41%
18:00 +7°C° 0 mm 3 mps 610 mmHg 43%
19:00 +5°C° 0 mm 3 mps 610 mmHg 45%
20:00 +3°C° 0 mm 3 mps 610 mmHg 47%
21:00 +3°C° 0 mm 3 mps 610 mmHg 48%
22:00 +2°C° 0 mm 3 mps 610 mmHg 48%
23:00 +2°C° 0 mm 3 mps 610 mmHg 48%

Tomorrow, 4 March, Thursday

Time Temperature Precipitation Wind Pressure Humidity
00:00 +2°C° 0 mm 3 mps 610 mmHg 48%
01:00 +2°C° 0 mm 3 mps 609 mmHg 48%
02:00 +1°C° 0 mm 3 mps 609 mmHg 48%
03:00 +2°C° 0 mm 3 mps 608 mmHg 48%
04:00 +3°C° 0 mm 2 mps 608 mmHg 48%
05:00 +3°C° 0 mm 2 mps 608 mmHg 48%
06:00 +3°C° 0.1 mm 2 mps 608 mmHg 50%
07:00 +3°C° 0.1 mm 2 mps 607 mmHg 51%
08:00 +4°C° 0.1 mm 1 mps 607 mmHg 53%
09:00 +4°C° 0 mm 2 mps 607 mmHg 53%
10:00 +4°C° 0 mm 3 mps 607 mmHg 53%
11:00 +4°C° 0 mm 4 mps 607 mmHg 53%
12:00 +2°C° 0.4 mm 5 mps 607 mmHg 65%
13:00 +1°C° 0.4 mm 6 mps 606 mmHg 78%
14:00 -1°C° 0.4 mm 6 mps 606 mmHg 90%
15:00 -1°C° 0.7 mm 7 mps 607 mmHg 92%
16:00 -2°C° 0.7 mm 7 mps 608 mmHg 94%
17:00 -2°C° 0.7 mm 8 mps 608 mmHg 96%
18:00 -2°C° 1 mm 7 mps 610 mmHg 96%
19:00 -2°C° 1 mm 7 mps 611 mmHg 96%
20:00 -2°C° 1 mm 6 mps 612 mmHg 97%
21:00 -1°C° 0.2 mm 5 mps 613 mmHg 92%
22:00 -2°C° 0.2 mm 4 mps 613 mmHg 88%
23:00 -1°C° 0.2 mm 3 mps 614 mmHg 84%

Day after tomorrow, 5 March, Friday

Time Temperature Precipitation Wind Pressure Humidity
00:00 -1°C° 0 mm 2 mps 614 mmHg 81%
01:00 -1°C° 0 mm 2 mps 615 mmHg 77%
02:00 -2°C° 0 mm 2 mps 615 mmHg 74%
03:00 -2°C° 0 mm 2 mps 616 mmHg 72%
04:00 -2°C° 0 mm 2 mps 616 mmHg 71%
05:00 -2°C° 0 mm 3 mps 616 mmHg 69%
06:00 -1°C° 0 mm 3 mps 616 mmHg 68%
07:00 +1°C° 0 mm 2 mps 617 mmHg 67%
08:00 +2°C° 0 mm 2 mps 617 mmHg 66%
09:00 +3°C° 0 mm 2 mps 617 mmHg 62%
10:00 +5°C° 0 mm 2 mps 617 mmHg 58%
11:00 +7°C° 0 mm 2 mps 617 mmHg 54%
12:00 +8°C° 0 mm 2 mps 617 mmHg 49%
13:00 +9°C° 0 mm 2 mps 617 mmHg 44%
14:00 +10°C° 0 mm 2 mps 617 mmHg 39%
15:00 +9°C° 0 mm 2 mps 616 mmHg 43%
16:00 +9°C° 0 mm 2 mps 616 mmHg 48%
17:00 +8°C° 0 mm 2 mps 616 mmHg 52%
18:00 +7°C° 0 mm 3 mps 615 mmHg 54%
19:00 +4°C° 0 mm 3 mps 615 mmHg 56%
20:00 +3°C° 0 mm 4 mps 614 mmHg 58%
21:00 +1°C° 0 mm 4 mps 614 mmHg 58%
22:00 +1°C° 0 mm 4 mps 614 mmHg 57%
23:00 +1°C° 0 mm 5 mps 614 mmHg 57%

6 March, Saturday

Time Temperature Precipitation Wind Pressure Humidity
00:00 +1°C° 0 mm 5 mps 613 mmHg 57%
01:00 0°C° 0 mm 5 mps 613 mmHg 56%
02:00 0°C° 0 mm 5 mps 612 mmHg 56%
03:00 0°C° 0 mm 4 mps 612 mmHg 57%
04:00 0°C° 0 mm 4 mps 612 mmHg 57%
05:00 0°C° 0 mm 3 mps 611 mmHg 58%
06:00 +1°C° 0 mm 3 mps 611 mmHg 55%
07:00 +2°C° 0 mm 3 mps 611 mmHg 53%
08:00 +3°C° 0 mm 3 mps 611 mmHg 51%
09:00 +7°C° 0 mm 3 mps 611 mmHg 45%
10:00 +9°C° 0 mm 3 mps 611 mmHg 39%
11:00 +12°C° 0 mm 2 mps 611 mmHg 33%
12:00 +12°C° 0 mm 3 mps 611 mmHg 33%
13:00 +13°C° 0 mm 3 mps 610 mmHg 32%
14:00 +14°C° 0 mm 3 mps 610 mmHg 31%
15:00 +13°C° 0 mm 3 mps 609 mmHg 34%
16:00 +11°C° 0 mm 3 mps 608 mmHg 38%
17:00 +10°C° 0 mm 3 mps 608 mmHg 41%
18:00 +9°C° 0 mm 3 mps 608 mmHg 44%
19:00 +7°C° 0 mm 2 mps 607 mmHg 46%
20:00 +6°C° 0 mm 2 mps 607 mmHg 49%
21:00 +4°C° 0 mm 3 mps 607 mmHg 49%
22:00 +4°C° 0 mm 3 mps 607 mmHg 50%
23:00 +4°C° 0 mm 4 mps 607 mmHg 51%

7 March, Sunday

Time Temperature Precipitation Wind Pressure Humidity
00:00 +4°C° 0 mm 4 mps 607 mmHg 51%
01:00 +4°C° 0 mm 4 mps 607 mmHg 50%
02:00 +4°C° 0 mm 4 mps 607 mmHg 50%
03:00 +4°C° 0 mm 4 mps 608 mmHg 51%
04:00 +3°C° 0 mm 4 mps 608 mmHg 52%
05:00 +3°C° 0 mm 3 mps 609 mmHg 53%
06:00 +4°C° 0 mm 3 mps 609 mmHg 52%
07:00 +5°C° 0 mm 2 mps 610 mmHg 52%
08:00 +6°C° 0 mm 2 mps 611 mmHg 52%
09:00 +7°C° 0 mm 2 mps 612 mmHg 48%
10:00 +9°C° 0 mm 2 mps 612 mmHg 44%
11:00 +10°C° 0 mm 3 mps 613 mmHg 40%
12:00 +12°C° 0 mm 3 mps 613 mmHg 37%
13:00 +13°C° 0 mm 4 mps 613 mmHg 35%
14:00 +14°C° 0 mm 5 mps 613 mmHg 33%
15:00 +13°C° 0 mm 5 mps 613 mmHg 35%
16:00 +13°C° 0 mm 5 mps 613 mmHg 37%
17:00 +13°C° 0 mm 5 mps 613 mmHg 39%
18:00 +10°C° 0 mm 5 mps 613 mmHg 43%
19:00 +8°C° 0 mm 5 mps 613 mmHg 47%
20:00 +7°C° 0 mm 5 mps 612 mmHg 52%
21:00 +6°C° 0 mm 5 mps 612 mmHg 54%
22:00 +6°C° 0 mm 5 mps 612 mmHg 56%
23:00 +5°C° 0 mm 5 mps 612 mmHg 58%

8 March, Monday

Time Temperature Precipitation Wind Pressure Humidity
00:00 +5°C° 0 mm 5 mps 612 mmHg 59%
01:00 +5°C° 0 mm 5 mps 611 mmHg 61%
02:00 +3°C° 0 mm 5 mps 611 mmHg 62%
03:00 +3°C° 0 mm 5 mps 611 mmHg 61%
04:00 +4°C° 0 mm 4 mps 610 mmHg 61%
05:00 +4°C° 0 mm 4 mps 610 mmHg 61%
06:00 +5°C° 0 mm 3 mps 610 mmHg 57%
07:00 +5°C° 0 mm 3 mps 610 mmHg 53%
08:00 +7°C° 0 mm 3 mps 610 mmHg 50%
09:00 +10°C° 0 mm 4 mps 610 mmHg 41%
10:00 +11°C° 0 mm 6 mps 610 mmHg 33%
11:00 +15°C° 0 mm 7 mps 611 mmHg 25%
12:00 +15°C° 0 mm 7 mps 610 mmHg 24%
13:00 +16°C° 0 mm 8 mps 609 mmHg 23%
14:00 +16°C° 0 mm 8 mps 609 mmHg 23%
15:00 +15°C° 0 mm 7 mps 608 mmHg 26%
16:00 +15°C° 0 mm 6 mps 607 mmHg 30%
17:00 +14°C° 0 mm 5 mps 607 mmHg 33%
18:00 +12°C° 0 mm 5 mps 606 mmHg 37%
19:00 +9°C° 0 mm 6 mps 605 mmHg 41%
20:00 +8°C° 0 mm 6 mps 605 mmHg 44%
21:00 +7°C° 0 mm 6 mps 605 mmHg 44%
22:00 +7°C° 0 mm 6 mps 605 mmHg 44%
23:00 +5°C° 0 mm 7 mps 605 mmHg 44%
Show more

We Need Your Consent

Meteoprog and our Service Providers may store and access personal data such as cookies, device identifiers or other similar technologies on your device and process such data to personalise content and ads, as well as provide social media features and to analyse the traffic.

  • Store and/or access information on your device

    Cookies, device identifiers or other information can be stored or accessed on your device for the purposes indicated above.

  • Personalised ads and content, ad and content measurement, audience insights, and products development

    Ads and content can be personalised based on a profile. More data can be added to better personalise ads and content. Ad and content performance can be measured. Insights about the audience who saw the ads and content can be derived. Such data can be used to develop or improve user’s experience, systems and software.

By clicking ‘I Agree’ you will allow the use of indicated cookies, device identifiers, web beacons or other similar technologies. Your settings can be changed in the browser on your device.

For certain purposes, legitimate interests may be relied on, rather than consent. You can read more about this in our Privacy and Cookie Policy.